Location: Härggis
(46.9540°N, 8.4897°E)
Time: 02:37:37
(UTC+00:00)

Meteor 2-1 Rocket - Pass Details

Date: 27 May 2022
Orbit: 827 x 909 km, 81.3° (Epoch: 26 June)

Event Time Altitude Azimuth Distance (km) Brightness Sun altitude
Rises 02:36:17 0° 345° (NNW) 3,497 7.9 -9.1°
Reaches altitude 10° 02:38:48 10° 342° (NNW) 2,541 7.1 -8.8°
Maximum altitude 02:44:25 57° 265° (W) 1,011 4.4 -8.1°
Drops below altitude 10° 02:49:54 10° 188° (S) 2,469 6.2 -7.4°
Sets 02:52:18 0° 184° (S) 3,389 6.9 -7.1°
